Simultaneous Nadir Overpasses (SNOs) Predictions

Prediction of SNOs between LANDSAT-8 and TERRA Satellite Orbit:

Table of predicted SNOs for the next 14.0 days since TLE Epoch: 5/1/2024
Index Date (LANDSAT-8) Time (LANDSAT-8) Lat,Lon (LANDSAT-8) SZA (LANDSAT-8 ) Date (TERRA) Time (TERRA) Lat,Lon (TERRA) SZA (TERRA ) Distance(km) Time Diff (sec)
1 05/15/2024 00:28:50 -81.81, 62.00 111.55 05/15/2024 00:30:02 -81.81, 62.05 111.51 0.88 72
2 05/15/2024 01:18:16 81.81,-130.25 68.46 05/15/2024 01:19:23 81.80,-130.16 68.51 1.55 67
3 05/15/2024 02:07:43 -81.81, 37.24 111.58 05/15/2024 02:08:45 -81.81, 37.15 111.55 1.48 62
4 05/15/2024 02:57:09 81.81,-155.02 68.44 05/15/2024 02:58:06 81.81,-155.07 68.46 0.85 57
5 05/15/2024 03:46:36 -81.81, 12.47 111.60 05/15/2024 03:47:27 -81.81, 12.66 111.54 2.96 51



Historial Predications of SNOs between LANDSAT-8 and TERRA
